GW5210 Weather Reports


Display with metric or nautical units.
time (UTC)temp
F
wind
direction
speed
MPH
gust
MPH
rain 1hr
in
rain 24hr
in
rain mn
in
humidity
%
barometer
mb
20260504202350 69 25 2.0 6.0 0.00 0.00 0.00 45 1011.5
20260504201344 71 307 1.0 3.0 0.00 0.00 0.00 46 1011.5
20260504200347 71 330 1.0 4.0 0.00 0.00 0.00 46 1011.5
20260504195341 72 283 1.0 4.0 0.00 0.00 0.00 45 1011.5
20260504194345 73 349 1.0 4.0 0.00 0.00 0.00 43 1011.4
20260504193410 73 267 2.0 3.0 0.00 0.00 0.00 40 1011.4
20260504192344 75 295 2.0 4.0 0.00 0.00 0.00 39 1011.4
20260504191409 76 286 1.0 4.0 0.00 0.00 0.00 40 1011.2
20260504190343 75 349 1.0 4.0 0.00 0.00 0.00 40 1011.2
20260504185346 74 354 2.0 4.0 0.00 0.00 0.00 38 1011.2
20260504184351 74 259 1.0 6.0 0.00 0.00 0.00 40 1011.2
20260504183345 74 20 2.0 4.0 0.00 0.00 0.00 41 1011.3
20260504182349 74 276 1.0 3.0 0.00 0.00 0.00 42 1011.5
20260504181344 73 325 1.0 3.0 0.00 0.00 0.00 41 1011.5
20260504180348 73 298 2.0 4.0 0.00 0.00 0.00 40 1011.5
20260504175342 73 331 1.0 3.0 0.00 0.00 0.00 40 1011.5
20260504174346 73 303 0.0 2.0 0.00 0.00 0.00 42 1011.5
20260504173451 72 9 1.0 4.0 0.00 0.00 0.00 42 1011.5
20260504172405 72 295 1.0 4.0 0.00 0.00 0.00 41 1011.5
20260504171350 72 13 1.0 3.0 0.00 0.00 0.00 43 1011.6
20260504170343 72 315 1.0 3.0 0.00 0.00 0.00 42 1011.6
20260504160350 67 310 0.0 2.0 0.00 0.00 0.00 49 1011.5
20260504150345 57 90 1.0 2.0 0.00 0.00 0.00 70 1011.0
20260504140409 50 0.0 1.0 0.00 0.00 0.00 74 1010.6
20260504130344 49 205 1.0 2.0 0.00 0.00 0.00 74 1010.3
20260504110343 51 0.0 1.0 0.00 0.00 0.00 63 1010.2
20260504100348 54 75 1.0 2.0 0.00 0.00 0.00 54 1010.0
20260504081342 56 166 3.0 5.0 0.00 0.00 0.00 55 1009.7
20260504080346 56 159 2.0 5.0 0.00 0.00 0.00 56 1009.7
20260504070350 54 222 2.0 3.0 0.00 0.00 0.00 66 1010.1
20260504050341 60 0.0 0.0 0.00 0.00 0.00 55 1010.4
20260504045426 60 170 0.0 1.0 0.00 0.00 0.00 55 1010.4
20260504044350 61 0.0 1.0 0.00 0.00 0.00 54 1010.4
20260504043344 61 180 0.0 2.0 0.00 0.00 0.00 52 1010.3
20260504042349 62 279 1.0 3.0 0.00 0.00 0.00 54 1010.4
20260504041403 63 242 1.0 1.0 0.00 0.00 0.00 55 1010.3
20260504040408 63 236 0.0 1.0 0.00 0.00 0.00 50 1010.3
20260504035342 64 135 0.0 1.0 0.00 0.00 0.00 46 1010.2
20260504034347 65 0.0 0.0 0.00 0.00 0.00 44 1010.1
20260504033351 66 0.0 0.0 0.00 0.00 0.00 42 1010.1
20260504032345 66 0.0 0.0 0.00 0.00 0.00 40 1010.1
20260504031430 67 0.0 0.0 0.00 0.00 0.00 40 1010.1
20260504030344 68 0.0 0.0 0.00 0.00 0.00 40 1010.1
20260504025348 68 0.0 0.0 0.00 0.00 0.00 40 1010.1
20260504024342 69 0.0 1.0 0.00 0.00 0.00 37 1010.2
20260504023406 70 180 1.0 1.0 0.00 0.00 0.00 35 1010.3
20260504022411 70 0.0 0.0 0.00 0.00 0.00 35 1010.5
20260504021345 70 0.0 1.0 0.00 0.00 0.00 32 1010.5
20260504020349 71 0.0 0.0 0.00 0.00 0.00 31 1010.6
20260504015343 71 0.0 2.0 0.00 0.00 0.00 31 1010.6
20260504014348 72 247 0.0 1.0 0.00 0.00 0.00 31 1010.8
20260504013341 72 174 0.0 1.0 0.00 0.00 0.00 31 1010.8
20260504012346 73 118 1.0 2.0 0.00 0.00 0.00 32 1011.0
20260504011350 73 248 1.0 2.0 0.00 0.00 0.00 29 1011.1
20260504010344 74 288 2.0 3.0 0.00 0.00 0.00 27 1011.2
20260504005348 74 219 1.0 2.0 0.00 0.00 0.00 29 1011.3
20260504004342 75 175 1.0 3.0 0.00 0.00 0.00 27 1011.5
20260504003347 75 107 0.0 3.0 0.00 0.00 0.00 27 1011.5
20260504002351 76 180 1.0 2.0 0.00 0.00 0.00 27 1011.5
20260504001345 76 299 1.0 2.0 0.00 0.00 0.00 26 1011.6
20260504000349 77 6 1.0 3.0 0.00 0.00 0.00 26 1011.6
20260503235343 78 251 1.0 2.0 0.00 0.00 0.00 26 1011.7
20260503234408 78 339 2.0 3.0 0.00 0.00 0.00 27 1011.9
20260503233342 78 293 0.0 3.0 0.00 0.00 0.00 29 1012.0
20260503232346 78 252 2.0 3.0 0.00 0.00 0.00 29 1012.1
20260503231411 77 234 2.0 3.0 0.00 0.00 0.00 29 1012.2
20260503230345 78 311 1.0 2.0 0.00 0.00 0.00 31 1012.3
20260503225350 77 215 1.0 2.0 0.00 0.00 0.00 35 1012.5
20260503224403 77 256 1.0 3.0 0.00 0.00 0.00 32 1012.6
20260503223348 77 300 0.0 3.0 0.00 0.00 0.00 32 1012.8
20260503222342 76 233 1.0 3.0 0.00 0.00 0.00 33 1013.0
20260503221346 76 269 1.0 3.0 0.00 0.00 0.00 33 1013.1
20260503220351 76 214 1.0 3.0 0.00 0.00 0.00 33 1013.3
20260503215344 76 258 1.0 2.0 0.00 0.00 0.00 34 1013.4
20260503214349 75 285 2.0 3.0 0.00 0.00 0.00 34 1013.5
20260503213343 75 243 3.0 5.0 0.00 0.00 0.00 33 1013.7
20260503212347 75 225 1.0 3.0 0.00 0.00 0.00 34 1013.7
20260503211351 75 298 2.0 4.0 0.00 0.00 0.00 34 1013.8
20260503210345 75 280 2.0 5.0 0.00 0.00 0.00 34 1013.8
20260503205350 75 332 0.0 3.0 0.00 0.00 0.00 35 1013.9
20260503204344 75 316 1.0 3.0 0.00 0.00 0.00 34 1013.9
20260503203348 74 246 3.0 5.0 0.00 0.00 0.00 34 1013.9